Location: Poughquag
(41.6090°N, 73.6820°W)
Time: 14:48:50
(UTC-04:00)

Explorer 11/Cluster Stage 4 - Pass Details

Date: 30 May 2020
Orbit: 467 x 1259 km, 28.8° (Epoch: 05 July)

Event Time Altitude Azimuth Distance (km) Brightness Sun altitude
Rises 12:31:33 0° 258° (WSW) 4,175 10.3 69.8°
Reaches altitude 10° 12:36:05 10° 237° (WSW) 3,229 10.0 70.0°
Maximum altitude 12:40:06 15° 207° (SSW) 2,872 9.9 70.1°
Drops below altitude 10° 12:44:04 10° 178° (S) 3,150 10.1 70.2°
Sets 12:48:24 0° 155° (SSE) 4,009 10.5 70.3°
